Weather Roundup
Issued by NWS

Home | Current Version | Previous Version | Graphics & Text | Print | Product List | Glossary Off
Versions: 1 2 3 4 5 6 7 8 9 10 11 12 13 14 15 16 17 18 19 20 21 22 23 24 25 26 27 28 29 30 31 32 33 34 35 36 37 38 39 40 41 42 43 44 45 46 47 48 49 50

863
NZUS93 KARX 220759
HRRWXR

CURRENT HOURLY OBSERVATIONS ACROSS
MUCH OF THE UPPER MISSISSIPPI VALLEY
NATIONAL WEATHER SERVICE LA CROSSE WI
300 AM CDT SUN APR 22 2018


...SOUTHEAST MINNESOTA...


CITY           SKY/WX    TMP DP  RH WIND       PRES   REMARKS
ROCHESTER      MOCLDY    41  32  70 E3        30.32F
ROCHESTER/MAYO FAIR      39  32  75 CALM      30.33S
WINONA         FAIR      36  32  87 CALM      30.32F
AUSTIN         FAIR      37  30  75 CALM      30.31F
ALBERT LEA     FAIR      39  30  70 CALM      30.31F
DODGE CENTER   FAIR      37  32  81 SE5       30.32F WCI  34
PRESTON        CLOUDY    40  31  70 CALM      30.33F
OWATONNA       FAIR      36  32  87 CALM      30.32F
FARIBAULT      NOT AVBL
$$

...ELSEWHERE IN MINNESOTA...


CITY           SKY/WX    TMP DP  RH WIND       PRES   REMARKS
MINNEAPOLIS    FAIR      39  33  79 CALM      30.33F
INTNL FALLS    FAIR      38  24  57 CALM      30.27S
DULUTH         FAIR      37  18  46 CALM      30.31F
RED WING       FAIR      32  27  80 CALM      30.33F
REDWOOD FALLS  CLEAR     36  33  89 CALM      30.31F
MANKATO        MOCLDY    40  34  79 CALM      30.32F
WORTHINGTON    CLOUDY    34  32  92 CALM      30.29F
FAIRMONT       CLOUDY    37  31  78 CALM      30.31F
$$

...SOUTHWEST WISCONSIN...


CITY           SKY/WX    TMP DP  RH WIND       PRES   REMARKS
LA CROSSE      FAIR      37  31  78 CALM      30.34F
PRAIRIE DU CHI CLOUDY    41  33  75 CALM      30.34S
BOSCOBEL       CLOUDY    38  34  85 CALM      30.34S
LONE ROCK      FAIR      35  33  92 CALM      30.33F
PLATTEVILLE    CLOUDY    43  35  73 E6        30.32F
FORT MC COY    FAIR      28  26  91 CALM      30.35F
CAMP DOUGLAS   FAIR      29  29  98 CALM      30.34F
MAUSTON-NEW LI FAIR      32  30  92 CALM      30.34F
VIROQUA        FAIR      41  32  70 E5        30.33F
WIS DELLS      FAIR      33  29  85 CALM      30.34F
$$

...ELSEWHERE IN WISCONSIN...


CITY           SKY/WX    TMP DP  RH WIND       PRES   REMARKS
MILWAUKEE      MOCLDY    38  25  59 CALM      30.36F
MADISON        FAIR      32  30  92 CALM      30.34F
GREEN BAY      FAIR      32  27  81 CALM      30.37S
EAU CLAIRE     NOT AVBL
BLACK RVR FLS  FAIR      26  26 100 CALM      30.34F
MEDFORD        FAIR      28  25  87 CALM      30.34S
WAUSAU         FAIR      30  25  81 CALM      30.33F
WIS RAPIDS     FAIR      30  23  75 CALM      30.36S
MARSHFIELD     FAIR      35  27  72 CALM      30.33F
RICE LAKE      FAIR      30  26  87 CALM      30.36S
$$

...NORTHEAST IOWA...


CITY           SKY/WX    TMP DP  RH WIND       PRES   REMARKS
WATERLOO       FAIR      41  36  82 E7        30.29F
DUBUQUE        CLOUDY    45  28  51 CALM      30.32R
DECORAH        CLOUDY    39  34  81 CALM      30.31F
MASON CITY     CLOUDY    37  34  89 NE5       30.31F WCI  33
CHARLES CITY   CLOUDY    45  36  70 E5        30.31F
OELWEIN        CLOUDY    43  37  81 NE7       30.31S
$$

...ELSEWHERE IN IOWA...


CITY           SKY/WX    TMP DP  RH WIND       PRES   REMARKS
DES MOINES     CLOUDY    49  33  54 E9        30.26F
IOWA CITY      FAIR      49  31  49 E9        30.30S
FORT DODGE     CLOUDY    44  36  73 NE7       30.29R
MARSHALLTOWN   CLOUDY    42  36  79 E8        30.27S
CEDAR RAPIDS   FAIR      44  34  67 E9        30.27F
$$

...NORTHERN ILLINOIS...


CITY           SKY/WX    TMP DP  RH WIND       PRES   REMARKS
CHICAGO-OHARE  CLOUDY    44  20  38 NE9       30.33F
CHICAGO-MIDWAY CLOUDY    45  18  34 E7        30.34F
MOLINE         FAIR      47  26  44 E7        30.29R
ROCKFORD       CLOUDY    44  21  40 E9        30.33F
PEORIA         FAIR      48  30  49 E13       30.27R
$$

NOTE: "FAIR" INDICATES FEW OR NO CLOUDS BELOW 12,000 FEET WITH NO
SIGNIFICANT WEATHER AND/OR OBSTRUCTIONS TO VISIBILITY. WIND
SPEEDS ARE IN MILES-PER-HOUR.




USA.gov is the U.S. government's official web portal to all federal, state and local government web resources and services.